Saratoga-Weather Station Historical Data
 
Daily Summary for May 26, 2019 Units:  English    Metric   Both
Daily Weekly Monthly Yearly Custom
  Current: High: Low: Average:
Temperature: 88.3 °F 88.3 °F 62.4 °F 70.8 °F
Dew Point: 64.2 °F 69.8 °F 61 °F 65.2 °F
Humidity: 45% 97% 45% 85%
Wind Speed: 0.9mph 4.9mph 0mph 0.1mph
Wind Gust: 1mph 8mph - -
WindESE - - South
Pressure: 30.15 in 30.19 in 30.13 in -
Precipitation: 0 in      
Historical Graphs
 
 
Tabular Data for May 26, 2019
Time Temperature Dew Point Pressure Wind Wind Speed Wind Gust Humidity Rainfall Rate (Hourly) solar
00:04 69.3 °F 66.9 °F 30.14 in Calm     92% 0 in meteobridge W/m2
00:09 69.3 °F 66.9 °F 30.14 in Calm     92% 0 in meteobridge W/m2
00:14 69.1 °F 66.7 °F 30.14 in Calm     92% 0 in meteobridge W/m2
00:19 68.9 °F 66.6 °F 30.14 in Calm     92% 0 in meteobridge W/m2
00:24 68.7 °F 66.6 °F 30.14 in Calm     93% 0 in meteobridge W/m2
00:29 68.7 °F 66.6 °F 30.14 in Calm     93% 0 in meteobridge W/m2
00:34 68.5 °F 66.4 °F 30.14 in Calm     93% 0 in meteobridge W/m2
00:39 68.4 °F 66.2 °F 30.14 in Calm     93% 0 in meteobridge W/m2
00:44 68.4 °F 66.2 °F 30.14 in Calm     93% 0 in meteobridge W/m2
00:49 68.2 °F 66 °F 30.14 in Calm     93% 0 in meteobridge W/m2
00:54 68.2 °F 66 °F 30.14 in Calm     93% 0 in meteobridge W/m2
00:59 67.8 °F 65.7 °F 30.14 in Calm     93% 0 in meteobridge W/m2
01:04 67.8 °F 65.7 °F 30.14 in Calm     93% 0 in meteobridge W/m2
01:09 67.6 °F 65.5 °F 30.14 in Calm     93% 0 in meteobridge W/m2
01:14 67.6 °F 65.5 °F 30.14 in Calm     93% 0 in meteobridge W/m2
01:19 67.5 °F 65.3 °F 30.14 in Calm     93% 0 in meteobridge W/m2
01:24 67.5 °F 65.3 °F 30.14 in Calm     93% 0 in meteobridge W/m2
01:29 67.3 °F 65.5 °F 30.14 in Calm     94% 0 in meteobridge W/m2
01:34 67.3 °F 65.5 °F 30.14 in Calm     94% 0 in meteobridge W/m2
01:39 67.1 °F 65.3 °F 30.14 in Calm     94% 0 in meteobridge W/m2
01:44 66.9 °F 65.1 °F 30.14 in Calm     94% 0 in meteobridge W/m2
01:49 66.9 °F 65.1 °F 30.14 in Calm     94% 0 in meteobridge W/m2
01:54 66.7 °F 64.9 °F 30.14 in Calm     94% 0 in meteobridge W/m2
01:59 66.7 °F 64.9 °F 30.14 in Calm     94% 0 in meteobridge W/m2
02:04 66.6 °F 64.8 °F 30.14 in Calm     94% 0 in meteobridge W/m2
02:09 66.6 °F 64.8 °F 30.14 in Calm     94% 0 in meteobridge W/m2
02:14 66.4 °F 64.6 °F 30.14 in Calm     94% 0 in meteobridge W/m2
02:19 66.4 °F 64.6 °F 30.14 in Calm     94% 0 in meteobridge W/m2
02:24 66.4 °F 64.6 °F 30.14 in Calm     94% 0 in meteobridge W/m2
02:29 66.4 °F 64.9 °F 30.14 in Calm     95% 0 in meteobridge W/m2
02:34 66.2 °F 64.4 °F 30.14 in Calm     94% 0 in meteobridge W/m2
02:39 66 °F 64.6 °F 30.13 in Calm     95% 0 in meteobridge W/m2
02:44 66 °F 64.6 °F 30.14 in Calm     95% 0 in meteobridge W/m2
02:49 66 °F 64.6 °F 30.13 in Calm     95% 0 in meteobridge W/m2
02:54 65.8 °F 64.4 °F 30.13 in Calm     95% 0 in meteobridge W/m2
02:59 65.8 °F 64.4 °F 30.14 in Calm     95% 0 in meteobridge W/m2
03:04 65.8 °F 64.4 °F 30.13 in Calm     95% 0 in meteobridge W/m2
03:09 65.7 °F 64.2 °F 30.13 in Calm     95% 0 in meteobridge W/m2
03:14 65.7 °F 64.2 °F 30.14 in Calm     95% 0 in meteobridge W/m2
03:19 65.7 °F 64.2 °F 30.14 in Calm     95% 0 in meteobridge W/m2
03:24 65.7 °F 64.2 °F 30.13 in Calm     95% 0 in meteobridge W/m2
03:29 65.5 °F 64 °F 30.13 in Calm     95% 0 in meteobridge W/m2
03:34 65.5 °F 64 °F 30.13 in Calm     95% 0 in meteobridge W/m2
03:39 65.5 °F 64 °F 30.14 in Calm     95% 0 in meteobridge W/m2
03:44 65.1 °F 63.7 °F 30.14 in Calm     95% 0 in meteobridge W/m2
03:49 65.1 °F 63.7 °F 30.13 in Calm     95% 0 in meteobridge W/m2
03:54 65.1 °F 63.7 °F 30.13 in Calm     95% 0 in meteobridge W/m2
03:59 64.9 °F 63.5 °F 30.13 in Calm     95% 0 in meteobridge W/m2
04:04 64.9 °F 63.5 °F 30.13 in Calm     95% 0 in meteobridge W/m2
04:09 64.9 °F 63.5 °F 30.13 in Calm     95% 0 in meteobridge W/m2
04:14 64.9 °F 63.5 °F 30.13 in Calm     95% 0 in meteobridge W/m2
04:19 64.8 °F 63.3 °F 30.13 in Calm     95% 0 in meteobridge W/m2
04:24 64.8 °F 63.3 °F 30.13 in Calm     95% 0 in meteobridge W/m2
04:29 64.6 °F 63.1 °F 30.13 in Calm     95% 0 in meteobridge W/m2
04:34 64.6 °F 63.1 °F 30.13 in Calm     95% 0 in meteobridge W/m2
04:39 64.4 °F 63 °F 30.13 in Calm     95% 0 in meteobridge W/m2
04:44 64.4 °F 63 °F 30.14 in Calm     95% 0 in meteobridge W/m2
04:49 64.2 °F 62.8 °F 30.14 in Calm     95% 0 in meteobridge W/m2
04:54 64.2 °F 62.8 °F 30.14 in Calm     95% 0 in meteobridge W/m2
04:59 64 °F 63 °F 30.14 in Calm     96% 0 in meteobridge W/m2
05:04 64 °F 63 °F 30.14 in Calm     96% 0 in meteobridge W/m2
05:09 63.9 °F 62.4 °F 30.14 in Calm     95% 0 in meteobridge W/m2
05:14 63.9 °F 62.4 °F 30.14 in Calm     95% 0 in meteobridge W/m2
05:19 63.9 °F 62.4 °F 30.14 in Calm     95% 0 in meteobridge W/m2
05:24 63.9 °F 62.4 °F 30.15 in Calm     95% 0 in meteobridge W/m2
05:29 63.7 °F 62.2 °F 30.15 in Calm     95% 0 in meteobridge W/m2
05:34 63.7 °F 62.2 °F 30.15 in Calm     95% 0 in meteobridge W/m2
05:39 63.5 °F 62.4 °F 30.15 in Calm     96% 0 in meteobridge W/m2
05:44 63.3 °F 62.2 °F 30.15 in Calm     96% 0 in meteobridge W/m2
05:49 63.3 °F 62.2 °F 30.15 in Calm     96% 0 in meteobridge W/m2
05:54 63.1 °F 62.1 °F 30.15 in Calm     96% 0 in meteobridge W/m2
05:59 63.1 °F 62.1 °F 30.15 in Calm     96% 0 in meteobridge W/m2
06:04 63.1 °F 62.1 °F 30.16 in Calm     96% 0 in meteobridge W/m2
06:09 63 °F 61.9 °F 30.16 in Calm     96% 0 in meteobridge W/m2
06:14 63 °F 61.9 °F 30.16 in Calm     96% 0 in meteobridge W/m2
06:19 62.8 °F 61.7 °F 30.16 in Calm     96% 0 in meteobridge W/m2
06:24 62.8 °F 61.7 °F 30.16 in Calm     96% 0 in meteobridge W/m2
06:29 62.4 °F 61 °F 30.16 in Calm     95% 0 in meteobridge W/m2
06:34 62.4 °F 61.3 °F 30.16 in Calm     96% 0 in meteobridge W/m2
06:39 62.4 °F 61.3 °F 30.16 in Calm     96% 0 in meteobridge W/m2
06:44 62.4 °F 61.3 °F 30.16 in Calm     96% 0 in meteobridge W/m2
06:49 62.4 °F 61.3 °F 30.17 in Calm     96% 0 in meteobridge W/m2
06:54 62.4 °F 61.3 °F 30.17 in Calm     96% 0 in meteobridge W/m2
06:59 62.4 °F 61.3 °F 30.16 in Calm     96% 0 in meteobridge W/m2
07:04 62.4 °F 61.3 °F 30.17 in Calm     96% 0 in meteobridge W/m2
07:09 62.4 °F 61.5 °F 30.17 in Calm     97% 0 in meteobridge W/m2
07:14 62.6 °F 61.7 °F 30.17 in Calm     97% 0 in meteobridge W/m2
07:19 62.6 °F 61.7 °F 30.17 in Calm     97% 0 in meteobridge W/m2
07:24 62.8 °F 61.9 °F 30.17 in Calm     97% 0 in meteobridge W/m2
07:29 62.8 °F 61.7 °F 30.17 in Calm     96% 0 in meteobridge W/m2
07:34 63 °F 62.1 °F 30.17 in Calm     97% 0 in meteobridge W/m2
07:39 63 °F 62.1 °F 30.17 in Calm     97% 0 in meteobridge W/m2
07:44 63.1 °F 62.2 °F 30.18 in Calm     97% 0 in meteobridge W/m2
07:49 63.1 °F 62.2 °F 30.17 in Calm     97% 0 in meteobridge W/m2
07:54 63.3 °F 62.4 °F 30.18 in Calm     97% 0 in meteobridge W/m2
07:59 63.7 °F 62.8 °F 30.18 in Calm     97% 0 in meteobridge W/m2
08:04 63.9 °F 63 °F 30.18 in Calm     97% 0 in meteobridge W/m2
08:09 64 °F 63.1 °F 30.18 in Calm     97% 0 in meteobridge W/m2
08:14 64.4 °F 63.5 °F 30.19 in Calm     97% 0 in meteobridge W/m2
08:19 64.6 °F 63.7 °F 30.19 in Calm     97% 0 in meteobridge W/m2
08:24 64.9 °F 64 °F 30.19 in Calm     97% 0 in meteobridge W/m2
08:29 65.1 °F 64.2 °F 30.19 in Calm     97% 0 in meteobridge W/m2
08:34 65.7 °F 64.8 °F 30.19 in Calm     97% 0 in meteobridge W/m2
08:39 65.8 °F 64.9 °F 30.19 in Calm     97% 0 in meteobridge W/m2
08:44 66.2 °F 64.9 °F 30.19 in Calm     96% 0 in meteobridge W/m2
08:49 66.4 °F 65.1 °F 30.19 in Calm     96% 0 in meteobridge W/m2
08:54 66.9 °F 65.7 °F 30.19 in Calm     96% 0 in meteobridge W/m2
08:59 67.3 °F 66 °F 30.19 in Calm     96% 0 in meteobridge W/m2
09:04 67.6 °F 66.4 °F 30.19 in Calm     96% 0 in meteobridge W/m2
09:09 68.4 °F 67.1 °F 30.19 in Calm     96% 0 in meteobridge W/m2
09:14 69.1 °F 67.6 °F 30.19 in Calm     95% 0 in meteobridge W/m2
09:19 69.4 °F 68 °F 30.19 in Calm   1 mph 95% 0 in meteobridge W/m2
09:24 70.2 °F 68 °F 30.19 in Calm     93% 0 in meteobridge W/m2
09:29 70.7 °F 68.2 °F 30.19 in Calm     92% 0 in meteobridge W/m2
09:34 71.2 °F 68.7 °F 30.19 in Calm     92% 0 in meteobridge W/m2
09:39 71.8 °F 69.1 °F 30.19 in Calm     91% 0 in meteobridge W/m2
09:44 72.1 °F 69.4 °F 30.19 in Calm     91% 0 in meteobridge W/m2
09:49 72.5 °F 69.1 °F 30.19 in Calm     89% 0 in meteobridge W/m2
09:54 73 °F 69.6 °F 30.19 in Calm     89% 0 in meteobridge W/m2
09:59 73.6 °F 67.8 °F 30.19 in Calm   1 mph 82% 0 in meteobridge W/m2
10:04 74.1 °F 68.2 °F 30.19 in Calm     82% 0 in meteobridge W/m2
10:09 74.8 °F 68.2 °F 30.18 in Calm     80% 0 in meteobridge W/m2
10:14 75.6 °F 68.5 °F 30.18 in NNE 0.9 mph 1 mph 79% 0 in meteobridge W/m2
10:19 76.3 °F 69.3 °F 30.18 in Calm     79% 0 in meteobridge W/m2
10:24 76.6 °F 67.6 °F 30.18 in Calm   1 mph 74% 0 in meteobridge W/m2
10:29 77.4 °F 68 °F 30.18 in Calm   1 mph 73% 0 in meteobridge W/m2
10:34 77.7 °F 68.4 °F 30.18 in NNE 0.9 mph 1 mph 73% 0 in meteobridge W/m2
10:39 78.4 °F 69.8 °F 30.18 in WNW 0.9 mph 3 mph 75% 0 in meteobridge W/m2
10:44 79 °F 68.7 °F 30.18 in Calm   2 mph 71% 0 in meteobridge W/m2
10:49 79.5 °F 69.3 °F 30.18 in Calm     71% 0 in meteobridge W/m2
10:54 79.9 °F 68.7 °F 30.18 in Calm   1 mph 69% 0 in meteobridge W/m2
10:59 80.4 °F 69.3 °F 30.18 in Calm   1 mph 69% 0 in meteobridge W/m2
11:04 81 °F 69.4 °F 30.18 in Calm   2 mph 68% 0 in meteobridge W/m2
11:09 81.3 °F 68.9 °F 30.18 in Calm   2 mph 66% 0 in meteobridge W/m2
11:14 81.9 °F 68.9 °F 30.18 in Calm   1 mph 65% 0 in meteobridge W/m2
11:19 82.4 °F 69.1 °F 30.18 in Calm   1 mph 64% 0 in meteobridge W/m2
11:24 82.9 °F 68.5 °F 30.17 in Calm   1 mph 62% 0 in meteobridge W/m2
11:29 83.5 °F 69.1 °F 30.17 in Calm     62% 0 in meteobridge W/m2
11:34 83.8 °F 68.5 °F 30.17 in Calm   1 mph 60% 0 in meteobridge W/m2
11:39 84.2 °F 68.7 °F 30.17 in Calm   1 mph 60% 0 in meteobridge W/m2
11:44 84.6 °F 66.6 °F 30.17 in Calm   8 mph 55% 0 in meteobridge W/m2
11:49 84.9 °F 68 °F 30.17 in NNW 0.9 mph 2 mph 57% 0 in meteobridge W/m2
11:54 84.9 °F 65.8 °F 30.17 in Calm   4 mph 53% 0 in meteobridge W/m2
11:59 85.3 °F 66.7 °F 30.17 in Calm     54% 0 in meteobridge W/m2
12:04 85.6 °F 66.6 °F 30.17 in NW 0.9 mph 1 mph 53% 0 in meteobridge W/m2
12:09 86 °F 67.5 °F 30.17 in Calm   3 mph 54% 0 in meteobridge W/m2
12:14 86.4 °F 67.3 °F 30.17 in Calm   3 mph 53% 0 in meteobridge W/m2
12:19 86.7 °F 68 °F 30.18 in Calm   1 mph 54% 0 in meteobridge W/m2
12:24 87.1 °F 66.7 °F 30.17 in Calm   1 mph 51% 0 in meteobridge W/m2
12:29 86.9 °F 67.1 °F 30.17 in NNE 0.9 mph 5 mph 52% 0 in meteobridge W/m2
12:34 86.9 °F 66.6 °F 30.17 in NNW 2.9 mph 5 mph 51% 0 in meteobridge W/m2
12:39 86.9 °F 66.6 °F 30.17 in NE 2 mph 4 mph 51% 0 in meteobridge W/m2
12:44 87.3 °F 67.5 °F 30.17 in Calm   4 mph 52% 0 in meteobridge W/m2
12:49 87.4 °F 68.2 °F 30.17 in NW 4.9 mph 5 mph 53% 0 in meteobridge W/m2
12:54 87.4 °F 67.6 °F 30.17 in Calm     52% 0 in meteobridge W/m2
12:59 87.6 °F 68.4 °F 30.17 in Calm     53% 0 in meteobridge W/m2
13:04 87.6 °F 67.8 °F 30.16 in Calm   1 mph 52% 0 in meteobridge W/m2
13:09 87.4 °F 68.2 °F 30.16 in Calm     53% 0 in meteobridge W/m2
13:14 87.6 °F 67.3 °F 30.16 in Calm   1 mph 51% 0 in meteobridge W/m2
13:19 87.8 °F 68 °F 30.16 in Calm     52% 0 in meteobridge W/m2
13:24 87.4 °F 67.6 °F 30.16 in Calm   1 mph 52% 0 in meteobridge W/m2
13:29 87.4 °F 67.6 °F 30.16 in Calm   3 mph 52% 0 in meteobridge W/m2
13:34 87.4 °F 66.6 °F 30.16 in ESE 0.9 mph 4 mph 50% 0 in meteobridge W/m2
13:39 87.4 °F 65.8 °F 30.15 in Calm     49% 0 in meteobridge W/m2
13:44 87.8 °F 65.1 °F 30.16 in Calm   2 mph 47% 0 in meteobridge W/m2
13:49 88.2 °F 66 °F 30.15 in Calm     48% 0 in meteobridge W/m2
13:54 88.3 °F 64.2 °F 30.15 in ESE 0.9 mph 1 mph 45% 0 in meteobridge W/m2
Juneau County Weather
Compliments of Weather Underground - 2 mb